Weather History for KSNT - April, 2013

Change the Weather History Date:

Monday, April 15, 2013

  Actual Average Record
Temperature  
Mean Temperature 25 °F 33 °F  
Max Temperature 33 °F 47 °F 70 °F (1985)
Min Temperature 17 °F 19 °F 2 °F (1970)
Degree Days  
Heating Degree Days 40 32  
Month to date heating degree days 465 503  
Since 1 July heating degree days 8749 9221  
Cooling Degree Days 0 0  
Month to date cooling degree days 0 0  
Year to date cooling degree days 0 0  
Moisture  
Dew Point 20 °F    
Average Humidity 75    
Maximum Humidity 96    
Minimum Humidity 53    
Precipitation  
Precipitation 0.21 in 0.05 in 1.06 in (1917)
Month to date precipitation 1.38 0.88  
Year to date precipitation 4.21 6.00  
Snow  
Snow 0.00 in - - ()
Month to date snowfall  
Since 1 July snowfall  
Snow Depth -    
Sea Level Pressure  
Sea Level Pressure 29.66 in    
Wind  
Wind Speed 2 mph (NNE)    
Max Wind Speed 12 mph    
Max Gust Speed 16 mph    
T = Trace of Precipitation, MM = Missing Value Source: NWS Daily Summary

Daily Weather History Graph

Daily Weather History Graph

Search for Another Location

Airport or City:

Trip Planner

Search our weather history database for the weather conditions in past years. The results will help you decide how hot, cold, wet, or windy it might be!

Date:

Astronomy

Apr. 15, 2013 Rise Set
Actual Time 6:55 AM MDT 8:24 PM MDT
Civil Twilight 6:25 AM MDT 8:54 PM MDT
Nautical Twilight 5:49 AM MDT 9:31 PM MDT
Astronomical Twilight 5:10 AM MDT 10:10 PM MDT
Moon 10:18 AM MDT (4/15) 12:46 AM MDT (4/15)
Length of Visible Light 14h 29m
Length of Day
13h 28m
Waxing Crescent, 25% of the Moon is Illuminated
Apr 15
Waxing Crescent
Apr 18
First Quarter
Apr 25
Full
May 2
Last Quarter
May 9
New

Hourly Weather History & Observations

Time (MDT) Temp. Windchill Dew Point Humidity Pressure Visibility Wind Dir Wind Speed Gust Speed Precip Events Conditions
12:51 AM 23.0 °F 18.4 °F 21.0 °F 92% 29.62 in - NNW 3.5 mph - 0.01 in   Unknown
1:51 AM 23.0 °F - 19.9 °F 88% 29.62 in - Calm Calm - 0.01 in   Unknown
2:51 AM 23.0 °F - 21.0 °F 92% 29.59 in - Calm Calm - 0.03 in   Unknown
3:51 AM 23.0 °F - 21.0 °F 92% 29.60 in - Calm Calm - 0.02 in   Unknown
4:51 AM 23.0 °F - 19.9 °F 88% 29.61 in - Calm Calm - 0.02 in   Unknown
5:51 AM 21.9 °F - 19.9 °F 92% 29.61 in - Calm Calm - 0.01 in   Unknown
6:51 AM 19.0 °F - 17.1 °F 92% 29.63 in - Calm Calm - N/A   Unknown
7:51 AM 19.9 °F - 18.0 °F 92% 29.65 in - Calm Calm - N/A   Unknown
8:51 AM 21.0 °F 16.2 °F 17.1 °F 85% 29.67 in - ENE 3.5 mph - N/A   Unknown
9:51 AM 27.0 °F 23.0 °F 19.9 °F 75% 29.65 in - Variable 3.5 mph - N/A   Unknown
10:51 AM 27.0 °F 23.0 °F 18.0 °F 69% 29.66 in - North 3.5 mph - N/A   Unknown
11:51 AM 30.0 °F 26.5 °F 15.1 °F 54% 29.65 in - North 3.5 mph - N/A   Unknown
12:51 PM 32.0 °F 25.6 °F 19.0 °F 59% 29.63 in - NE 6.9 mph - N/A   Unknown
1:51 PM 28.9 °F 21.9 °F 17.1 °F 61% 29.65 in - North 6.9 mph - N/A   Unknown
2:51 PM 33.1 °F 27.7 °F 23.0 °F 66% 29.64 in - North 5.8 mph - N/A   Unknown
3:51 PM 30.9 °F - 23.0 °F 72% 29.66 in - Calm Calm - N/A   Unknown
4:51 PM 30.9 °F - 17.1 °F 57% 29.66 in - Calm Calm - 0.01 in   Unknown
5:51 PM 28.9 °F 21.9 °F 21.9 °F 75% 29.69 in - NE 6.9 mph - N/A   Unknown
6:51 PM 26.1 °F - 23.0 °F 88% 29.74 in - Calm Calm - 0.01 in   Unknown
7:51 PM 26.1 °F 21.9 °F 23.0 °F 88% 29.75 in - North 3.5 mph - 0.01 in   Unknown
8:51 PM 26.1 °F - 23.0 °F 88% 29.75 in - Calm Calm - N/A   Unknown
9:51 PM 25.0 °F - 23.0 °F 92% 29.73 in - Calm Calm - 0.07 in   Unknown
10:51 PM 25.0 °F - 23.0 °F 92% 29.74 in - Calm Calm - 0.01 in   Unknown
11:51 PM 21.9 °F 17.2 °F 17.1 °F 82% 29.74 in - NNW 3.5 mph - 0.01 in   Unknown